Weather in Dehiwala-Mount Lavinia

Sri Lanka     6°50′25″N   79°52′41″E
temp.,
°C
wind,
m/s
gust,
m/s
humid.,
%
clouds,
%
prec.,
mm/h
press.,
hPa
HPBL,
m
23 april, fri
fri2323:30+25ssw129129 4.1 101171
02:30+25sw129284 11.3 101076
05:30+24nw119147 18.5 101122
08:30+28sw027750 1.1 1013602
11:30+30w336831 2.3 10121170
14:30+30w446515 1.1 10091200
17:30+28w34735 1.6 1009566
20:30+26s01856 0.1 101139
24 april, sat
sat2423:30+26se118820 0.1 101141
02:30+25e119223 0.5 100939
05:30+24ese11933 0.6 101060
08:30+29ese11755 0.0 1012505
11:30+31wsw326345 0.7 10111289
14:30+32wsw436012 0.8 10081238
17:30+29sw347462 1.3 1008570
20:30+26ssw128625 0.8 101059
25 april, sun
sun2523:30+25sse11917 2.0 101031
02:30+24e119417 1.5 100952
05:30+24e119513 1.5 100947
08:30+28ese11805 0.0 1012372
11:30+33sw325728 0.1 10101499
14:30+32wsw54594 0.0 1007935
17:30+29sw35738 0.3 1008612
20:30+26ssw12878 1.3 101056
26 april, mon
mon2623:30+26se128924 1.3 101046
02:30+25se129161 0.8 100842
05:30+24se22937 1.4 100954
08:30+29ssw23755 1.8 1011615
11:30+32sw335729 1.9 10101572
14:30+31sw436014 0.1 10071127
17:30+29sw34725 0.1 1007626
20:30+26s228483 0.0 101078
27 april, tue
tue2723:30+26sse238858 0.0 101098
02:30+26sse238868 0.1 100794
05:30+25sse228920 0.3 100957
08:30+29s247131 0.1 1011862
11:30+32sw445855 0.3 10101558
14:30+32sw445721 0.6 10071528
17:30+29sw347182 0.6 1008736
20:30+27s128342 0.0 101057